Location: Espierre
(42.6009°N, 0.2881°W)
Time: 20:28:50
(UTC+00:00)

Daily predictions for brighter satellites

Satellite Brightness Start Highest point End
(mag) Time Altitude Azimuth Time Altitude Azimuth Time Altitude Azimuth
Cosmos 2333 4.3 18:32:27 10° NNW 18:38:15 71° ENE 18:43:59 10° SSE
Cosmos 2237 Rocket 4.0 18:35:49 10° N 18:38:55 15° NE 18:41:59 10° ENE
Exosat Rocket 3.9 18:34:06 10° S 18:38:59 53° ESE 18:44:56 10° NNE
Cosmos 1842 3.2 18:35:29 10° N 18:39:16 64° E 18:43:01 10° SSE
USA 307 2.7 18:36:32 10° NW 18:40:22 85° SW 18:44:10 10° SE
Cosmos 2251 Rocket 4.4 18:36:42 10° NNW 18:41:50 56° WSW 18:46:55 10° S
Meteor 1-11 Rocket 4.4 18:36:30 10° SSW 18:42:22 66° WNW 18:48:12 10° N
USA 186 3.6 18:41:42 10° E 18:43:22 14° ENE 18:45:01 10° NE
Cosmos 1190 Rocket 4.0 18:38:42 10° NNW 18:43:55 70° ENE 18:49:06 10° SSE
FALCON 9 R/B 4.0 18:40:59 10° SSW 18:44:34 20° SSE 18:52:47 10° ESE
Okean 3 3.8 18:45:49 10° N 18:49:53 45° ENE 18:53:57 10° SSE
Cosmos 1140 Rocket 4.5 18:45:09 10° NNW 18:50:11 52° WSW 18:55:13 10° S
COSMO-SKYMED 1 4.4 18:47:41 10° N 18:51:42 37° WNW 18:55:42 10° SW
CZ-4B R/B 3.3 18:46:54 10° SSE 18:52:30 66° ENE 18:58:06 10° N
Cosmos 1727 Rocket 4.1 18:47:19 10° S 18:53:39 86° E 18:59:57 10° N
Cosmos 1707 2.7 18:51:14 10° N 18:55:00 55° E 18:58:42 10° SSE
Cosmos 2322 3.9 18:50:08 10° NNW 18:55:42 55° ENE 19:01:13 10° SE
Lacrosse 5 rocket 2.9 18:52:59 10° SSE 18:56:01 19° ESE 18:58:58 10° E
Okean 1-7 3.1 18:52:12 10° N 18:56:30 54° E 19:00:44 10° SSE
Cosmos 1954 Rocket 4.1 18:51:47 10° NNW 18:56:59 63° ENE 19:02:12 10° SSE
Cosmos 1674 2.8 18:55:46 10° N 18:59:23 49° E 19:02:59 10° SSE
Cosmos 1933 Rocket 3.5 18:56:40 10° S 19:00:55 60° E 19:05:12 10° NNE
Cosmos 1975 3.1 18:57:17 10° SSE 19:01:03 44° E 19:04:50 10° NNE
SJ-6B 3.5 18:58:29 10° SE 19:02:02 34° ENE 19:05:33 10° N
Cosmos 2219 Rocket 2.2 18:56:40 10° NNW 19:02:23 78° ENE 19:08:03 10° SSE
Cosmos 2333 Rocket 2.6 18:58:37 10° NNW 19:04:22 69° WSW 19:10:04 10° SSE
Meteor 2-9 Rocket 4.3 18:59:25 10° SSW 19:04:57 81° W 19:10:23 10° N
Cosmos 1726 3.2 19:03:30 10° SE 19:06:12 21° E 19:08:55 10° NE
SL-8 R/B 3.8 19:01:56 10° WNW 19:06:44 79° SSW 19:11:06 12° SE
USA 308 3.4 19:03:16 10° WNW 19:06:54 49° SW 19:10:30 10° SSE
MOS 1-B 4.4 19:01:56 10° SSE 19:07:43 90° E 19:13:33 10° NNW
USA 267 3.5 19:03:21 10° SE 19:09:54 73° SW 19:16:30 10° NW
Cosmos 1869 Rocket 4.0 19:06:37 10° SSE 19:10:35 38° E 19:14:36 10° NNE
Cosmos 1900 4.3 19:06:13 10° SSW 19:11:10 85° ESE 19:16:07 10° NNE
BREEZE-M DEB (TANK) 2.0 19:07:46 10° WNW 19:12:11 69° SW 19:13:56 16° SE
COSMOS 2428 2.8 19:09:47 10° NNW 19:15:28 60° ENE 19:21:07 10° SE
SL-14 R/B 4.3 19:14:40 10° NNE 19:17:53 25° ENE 19:19:24 19° ESE
Cosmos 2297 Rocket 3.0 19:14:01 10° SSE 19:18:40 27° ESE 19:23:20 10° NE
Cosmos 1459 Rocket 3.9 19:14:50 10° N 19:20:54 82° E 19:27:00 10° S
Cosmos 1867 3.8 19:17:00 10° S 19:22:07 45° ESE 19:27:18 10° NE
USA 281 4.0 19:16:27 10° NNE 19:22:50 55° WNW 19:29:12 10° SW
NOSS 3-2 (A) 4.2 19:15:22 10° NNW 19:22:52 65° NE 19:30:28 14° SE
IGS 5A 3.4 19:20:55 10° SSE 19:25:02 88° W 19:29:11 10° NNW
Resurs 01 Rocket 2.8 19:25:55 20° E 19:27:14 23° ENE 19:30:44 10° NNE
Cosmos 1733 3.1 19:27:01 10° S 19:30:43 62° E 19:34:26 10° NNE
Cosmos 1725 Rocket 4.0 19:24:39 10° N 19:30:46 61° E 19:36:53 10° SSE
Landsat 7 3.8 19:27:15 10° SSE 19:31:54 64° ENE 19:36:35 10° N
NOSS 3-2 (C) 4.5 19:26:07 10° NNW 19:33:17 47° NE 19:38:47 21° ESE
CENTAUR R/B 3.3 19:25:07 10° NW 19:33:28 77° NE 19:41:25 15° SE
Cosmos 2360 Rocket 4.4 19:29:33 10° NW 19:34:10 26° WSW 19:38:46 10° SSW
Cosmos 1626 3.3 19:30:54 10° NNW 19:34:17 42° W 19:37:38 10° SSW
Cosmos 2227 Rocket 3.3 19:30:19 10° SSE 19:35:03 22° E 19:38:48 10° NE
CZ-4 R/B 2.2 19:32:19 10° S 19:36:01 48° W 19:39:47 10° NNW
Cosmos 1818 3.8 19:31:15 10° NW 19:36:41 72° WSW 19:41:45 12° SSE
Cosmos 1703 Rocket 4.1 19:34:24 10° NNW 19:38:48 62° W 19:43:09 10° S
Cosmos 192 4.2 19:35:38 10° SSW 19:40:34 83° ESE 19:45:33 10° NNE
Cosmos 2098 Rocket 3.7 19:35:34 10° S 19:40:43 89° E 19:47:05 10° N
Feng Yun 1-1 Rocket 4.5 19:36:46 10° S 19:42:14 71° WSW 19:47:54 10° NNW
Resurs 1-3 3.5 19:40:28 13° SSE 19:44:23 77° ENE 19:48:46 10° N
Iridium 4 Rocket 2.8 19:40:16 10° N 19:44:27 71° E 19:48:24 11° S
USA 238 DEB 4.4 19:39:55 10° NNW 19:46:51 44° NE 19:50:50 26° E
USA 238 4.4 19:40:01 10° NNW 19:46:58 44° NE 19:50:55 26° E
Cosmos 1802 Rocket 4.1 19:41:01 10° N 19:47:17 80° W 19:53:36 10° S
SL-16 R/B 3.9 19:44:53 10° N 19:48:30 17° NE 19:49:39 16° ENE
Meteor 2-10 3.9 19:46:56 10° S 19:51:58 90° ESE 19:57:03 10° N
Cosmos 1733 Rocket 3.5 19:53:01 37° E 19:53:01 37° E 19:56:47 10° NNE
Cosmos 1850 Rocket 4.0 19:49:15 10° NNW 19:54:35 68° ENE 19:57:18 29° SE
Okean-O 2.5 19:52:20 27° SSE 19:54:39 70° ENE 19:59:03 10° N
SPOT 1/Viking Rocket 3.6 19:55:57 30° SE 19:58:21 59° ENE 20:03:29 10° N
Cosmos 1110 Rocket 3.8 19:54:15 10° S 19:59:26 74° ESE 20:04:38 10° NNE
Okean 2 3.3 19:56:01 10° N 20:00:07 86° W 20:02:15 27° S
Cosmos 2016 Rocket 4.1 19:54:27 10° N 20:00:34 75° W 20:06:40 10° S
Cosmos 2123 Rocket 4.3 19:55:03 10° SSW 20:01:17 69° W 20:07:37 10° N
NOSS 0 Rocket 3.8 19:55:17 10° NNW 20:01:30 86° ENE 20:05:06 27° SSE
Okean O Rocket 3.3 19:59:00 10° SSW 20:03:00 33° W 20:07:00 10° NNW
SL-4 R/B 3.7 20:00:06 10° SSW 20:02:29 24° S 20:02:29 24° S
Cosmos 2221 Rocket 4.4 20:02:05 10° N 20:05:26 33° NE 20:05:26 33° NE
BREEZE-M DEB (TANK) 3.9 20:02:39 10° WNW 20:07:39 32° N 20:08:22 28° NNE
ISS -1.5 20:05:38 10° NW 20:07:57 17° N 20:08:42 16° NNE
Cosmos 2242 Rocket 4.4 20:04:23 10° NNW 20:08:50 53° W 20:13:14 10° S
CSL-04 Rocket 4.0 20:05:46 10° S 20:11:17 67° WSW 20:16:50 10° NNW
Cosmos 1447 Rocket 4.4 20:08:05 10° S 20:14:15 67° E 20:20:23 10° NNE
Cosmos 1452 Rocket 4.0 20:09:20 10° SSW 20:14:31 62° WNW 20:19:46 10° NNE
USA 186 3.8 20:13:23 16° SW 20:15:11 26° W 20:17:53 10° NW
ADEOS Rocket 4.4 20:15:26 23° ENE 20:15:50 23° ENE 20:20:58 10° N
Cosmos 1766 4.2 20:17:38 36° NNE 20:17:38 36° NNE 20:19:59 10° NNE
Cosmos 1331 Rocket 3.9 20:11:16 10° SSW 20:16:25 86° WNW 20:21:37 10° NNE
H-2A R/B 4.1 20:23:55 24° NNE 20:23:55 24° NNE 20:26:17 10° N
Cosmos 2237 Rocket 2.0 20:18:15 10° NNW 20:23:55 80° ENE 20:25:10 55° SE
MetOp-B 4.4 20:29:53 50° ENE 20:29:53 50° ENE 20:34:51 10° N
Cosmos 1741 Rocket 4.4 20:28:07 10° NNW 20:33:15 58° WSW 20:35:01 38° SSW
IRS-1C Rocket 4.4 20:31:12 33° S 20:33:30 64° WSW 20:38:45 10° NNW
Lacrosse 5 rocket 1.7 20:30:17 10° WSW 20:34:32 62° NW 20:34:34 62° NW
Cosmos 968 Rocket 3.5 20:32:39 10° NNW 20:37:26 64° NE 20:37:26 64° NE
Meteor 1-12 Rocket 4.2 20:38:17 64° ENE 20:38:17 64° ENE 20:43:41 10° NNE
SJ 16-02 3.8 20:35:43 10° NNE 20:36:14 12° NNE 20:36:14 12° NNE
ERS-1 Rocket 4.4 20:44:49 25° NNE 20:44:49 25° NNE 20:47:26 10° N
FALCON 9 R/B 3.4 20:22:10 10° W 20:43:21 55° S 20:45:16 46° SSE
Cosmos 1980 3.9 20:39:34 10° NNW 20:45:12 66° WSW 20:46:16 54° SSW
Cosmos 1513 Rocket 4.4 20:41:57 10° N 20:47:45 64° ENE 20:47:45 64° ENE
Meteor 1-24 Rocket 4.3 20:42:21 10° N 20:47:15 48° NE 20:47:15 48° NE
Ariane Rocket 3.6 20:49:52 47° NNE 20:49:52 47° NNE 20:53:40 10° N
NOSS 3-4 (A) 4.4 20:44:10 10° SSW 20:55:36 11° NE 20:55:43 10° NE
BREEZE-M DEB (TANK) 3.7 20:44:42 10° WNW 20:50:29 45° NNE 20:50:43 45° NNE
Cosmos 2297 Rocket 3.2 20:57:03 10° SW 21:02:26 45° WNW 21:07:51 10° NNE
Resurs 01 Rocket 3.0 21:03:26 34° W 21:03:31 34° W 21:07:34 10° NNW
IRS-1A Rocket 4.5 21:03:44 67° SW 21:04:10 70° WSW 21:10:03 10° NNW
Meteor 2-5 Rocket 4.1 21:09:43 10° N 21:14:30 62° NNW 21:14:30 62° NNW
Cosmos 2227 Rocket 2.8 21:12:37 10° SW 21:18:09 54° WNW 21:23:43 10° NNE
Terra 3.8 21:21:29 22° N 21:21:29 22° N 21:23:13 10° N
CZ-4C R/B 3.4 21:15:09 10° NNW 21:21:59 48° NE 21:21:59 48° NE
SL-16 R/B 3.1 21:27:41 10° NNW 21:31:32 44° NNW 21:31:32 44° NNW
USA 238 DEB 4.4 21:30:53 10° NW 21:38:00 50° WSW 21:38:18 50° SW
USA 238 4.4 21:30:59 10° NW 21:38:06 50° WSW 21:38:23 50° SW
ADEOS Rocket 3.9 22:02:21 49° NW 22:02:21 49° NW 22:07:25 10° NNW
ATLAS 3B R/B 4.2 23:00:29 10° NNW 23:04:56 35° N 23:04:56 35° N
CZ-4C R/B 4.4 23:03:36 10° NW 23:07:09 30° WNW 23:07:09 30° WNW
Cosmos 2344 4.5 23:12:06 10° NNW 23:18:50 57° N 23:18:50 57° N
